Voltar ao catálogo

ICEYE-X71

AtivoCiênciaSSO
NORAD 68494·PAYLOAD·🇫🇮 Finland

Lançado Mar 30, 2026 de Vandenberg Space Force Base

Loading…

Próximas Passagens (próximas 24 horas)

TLE

AtualizadoSource: Space-Track

Época: Sep 14, 2026, 13:58 UTC

1 68494U 26067CG  26257.58250323  .00008056  00000-0  68014-3 0  9993
2 68494  97.7725 214.7010 0004685  75.9139 284.2604 14.98374223 25075

Acompanhe ICEYE-X71 em tempo real com AllMySat

Download on the App Store